Theta_e
301 299 297 296 295 295 294 294 294 294 294 294 293 293 294 293 293 293 293 292 291 291 290 290 290 289 289 289 289 289 289 289 288 287 286 286 286 286 286 286 286 286
302 299 298 296 295 294 294 294 293 293 293 293 293 293 293 293 293 293 293 292 291 290 290 289 289 289 289 289 289 289 289 288 288 287 286 286 286 285 286 286 286 286
302 300 298 297 296 295 294 293 293 293 293 293 293 293 293 293 293 292 292 291 290 290 289 289 289 289 289 289 289 289 289 288 287 286 285 285 285 285 285 286 285 286
303 301 299 297 296 295 294 293 293 293 293 293 292 292 292 292 292 292 291 291 290 290 289 289 289 289 289 289 289 289 288 287 287 286 285 285 285 285 286 285 285 285
303 301 299 297 296 295 294 293 293 293 293 292 292 292 292 292 292 292 291 290 290 289 289 289 289 289 289 289 289 288 288 287 286 286 285 285 285 285 285 285 285 285
302 301 299 298 296 295 294 293 293 292 292 292 292 292 292 292 292 291 291 290 290 289 289 289 289 289 289 289 288 288 287 286 286 285 285 285 285 285 285 285 285 285
302 301 299 298 296 294 294 293 292 292 292 292 291 291 291 291 291 291 290 290 289 289 289 289 289 289 289 288 288 287 286 286 285 285 285 285 285 285 285 285 285 285
301 300 299 297 296 294 294 293 292 292 292 291 291 291 291 291 291 291 290 290 289 289 289 289 289 289 288 287 287 286 286 285 285 285 285 285 285 285 285 284 284 284
300 299 298 297 295 294 294 293 292 292 291 291 291 291 291 291 291 290 290 289 289 289 289 289 289 288 288 287 286 286 285 285 284 284 284 284 284 284 284 284 284 284
300 298 297 296 295 294 293 293 292 291 291 291 290 290 290 290 290 290 289 289 289 289 288 289 288 288 287 287 286 285 285 285 284 284 284 284 284 284 284 284 284 284
299 298 297 296 295 294 293 292 292 291 291 290 290 290 290 290 290 289 289 289 289 288 288 288 288 287 287 286 286 285 285 284 284 284 284 284 284 283 283 283 283 283
298 297 296 295 294 294 293 292 291 291 290 290 290 290 290 290 290 289 289 289 288 288 288 288 287 287 286 286 285 285 284 284 283 283 283 283 283 283 283 283 283 283
298 297 296 295 294 293 292 292 291 291 290 290 289 289 290 289 289 289 289 288 288 288 288 287 287 286 286 285 284 284 284 283 283 283 283 283 282 282 282 283 283 283
298 297 296 295 294 293 292 291 291 290 290 289 289 289 289 289 289 289 288 288 288 288 287 287 286 286 285 284 284 284 283 283 283 282 282 282 282 282 282 282 282 282
297 296 295 293 292 292 291 291 290 290 289 289 289 289 289 289 289 288 288 288 288 287 287 286 286 285 284 284 284 284 283 282 282 282 282 282 282 282 282 282 282 281
296 295 294 293 292 291 291 290 290 289 289 289 289 289 289 289 288 288 288 288 287 287 286 286 286 285 284 284 284 283 282 282 282 282 281 281 282 282 281 281 280 279
296 295 293 292 291 291 290 290 290 289 289 288 288 288 288 288 288 288 287 287 287 286 286 286 285 284 284 284 283 282 282 281 281 281 281 281 281 281 280 280 279 278
295 294 293 292 291 290 290 290 289 289 288 288 288 288 288 288 288 287 287 287 286 286 285 285 285 284 284 283 283 282 281 281 281 280 281 281 281 280 279 279 279 279
295 293 292 292 291 290 290 289 289 289 288 288 288 288 288 287 287 287 287 287 286 285 285 285 284 284 283 283 282 281 281 281 280 280 281 281 281 281 280 280 279 278
294 293 292 291 290 290 290 289 289 288 288 288 288 288 288 287 287 287 287 286 286 285 285 284 284 283 283 282 282 281 281 280 280 280 281 281 281 281 281 280 279 277
294 293 292 291 290 290 289 289 288 288 287 287 288 288 287 287 287 287 286 286 285 285 284 284 283 283 282 282 281 281 280 280 280 280 280 281 281 281 281 280 279 277
294 293 292 291 290 289 289 288 288 287 287 287 287 287 287 287 287 286 286 285 285 284 284 283 283 282 282 281 281 280 280 280 280 280 280 281 280 280 280 280 278 277
294 293 292 291 290 289 289 288 287 287 287 287 287 287 287 287 286 286 285 285 284 284 283 283 282 282 281 281 280 280 280 280 280 280 280 280 280 280 280 279 278 277
295 294 293 292 290 290 289 288 287 287 287 287 287 287 287 286 286 285 285 284 284 283 283 283 282 281 281 280 280 279 279 279 280 280 280 279 280 279 278 278 278 278
295 294 293 292 290 289 288 287 287 287 287 287 287 287 286 286 285 285 285 284 284 283 283 282 282 281 280 280 279 279 279 279 279 280 279 279 279 278 277 277 278 278
295 294 292 291 289 288 287 287 286 287 287 287 287 286 286 286 286 285 284 284 283 283 282 282 281 280 280 279 279 279 279 279 279 279 279 279 277 276 276 277 278 278
Wind_Speed
44 45 47 48 49 49 48 47 44 42 39 38 36 35 33 31 29 27 25 24 24 24 24 24 24 24 25 27 29 31 32 33 32 31 29 29 30 31 33 34 34 35
43 45 46 48 49 49 49 47 45 42 40 38 37 35 34 32 29 27 25 25 24 24 24 24 24 25 26 28 31 32 32 33 32 30 29 29 30 31 33 34 34 35
43 45 46 48 49 49 49 47 45 43 41 39 38 36 34 32 29 28 26 25 25 25 25 25 25 26 28 30 31 33 32 32 31 29 29 29 30 32 33 34 35 35
43 44 46 47 48 49 48 47 46 44 42 40 38 37 35 32 30 28 27 26 26 25 25 25 26 27 29 31 32 33 32 32 30 29 29 30 30 32 33 34 35 36
42 44 45 46 47 48 48 48 47 45 43 41 39 37 35 33 31 29 28 27 26 25 25 25 26 28 30 31 32 32 32 31 29 28 29 30 30 32 33 34 35 36
43 44 45 46 47 48 48 48 47 46 43 41 39 37 36 34 32 30 28 27 26 25 25 26 27 29 30 32 32 31 30 29 28 28 29 30 31 32 33 33 35 36
44 44 45 46 47 47 47 47 47 46 43 41 39 38 36 34 32 30 28 27 26 25 26 26 28 30 31 31 31 30 29 28 28 28 29 30 32 33 33 33 34 36
44 45 45 46 47 47 47 47 47 46 43 41 40 38 36 34 32 30 28 27 26 25 26 27 29 30 30 30 30 29 28 28 28 28 30 31 32 33 33 33 34 35
44 45 46 46 47 47 46 46 47 45 43 42 40 38 36 34 32 30 28 26 26 26 27 28 29 29 29 29 28 28 28 28 28 29 30 32 33 33 33 33 34 35
45 45 46 46 47 46 46 46 46 45 43 41 40 38 35 33 31 29 27 26 26 26 27 28 28 29 28 28 27 27 28 28 28 29 31 32 33 34 33 33 34 35
45 46 46 47 47 46 45 45 45 44 43 41 40 37 35 33 30 29 27 26 26 27 27 28 28 28 27 27 26 26 28 29 29 30 31 32 34 34 33 33 34 35
45 46 46 46 46 46 45 44 44 44 43 41 39 37 34 33 31 29 28 27 27 27 27 27 27 27 27 26 25 26 28 29 30 31 32 33 33 33 33 33 34 34
45 46 46 46 46 46 45 43 43 44 43 41 39 37 35 33 31 29 28 27 27 27 27 26 26 26 26 24 24 26 28 29 30 31 33 33 33 33 34 34 35 34
44 45 45 46 46 45 44 43 43 43 43 41 39 37 35 33 30 29 28 27 27 27 26 25 25 25 24 23 24 27 27 29 30 31 33 33 33 34 35 35 35 35
43 44 45 45 45 45 44 43 44 44 43 41 39 37 34 32 30 29 28 28 27 26 25 24 24 23 22 23 25 26 27 28 30 31 32 33 34 35 36 36 36 36
42 44 45 45 45 44 44 44 44 44 43 40 38 36 33 31 30 29 28 27 26 25 24 23 23 22 21 23 25 26 27 29 30 31 32 33 35 35 35 35 35 35
42 44 45 45 45 44 44 44 44 44 42 40 38 35 33 31 30 29 28 27 25 24 23 22 21 21 21 23 24 24 26 28 30 31 32 32 33 33 33 34 34 34
43 44 45 45 45 44 44 44 44 44 42 40 37 35 32 31 29 28 27 26 25 23 22 20 20 20 21 22 23 23 25 27 29 30 31 32 32 31 32 33 34 36
43 44 44 45 44 44 44 44 44 44 42 39 36 34 32 30 29 28 27 26 24 22 20 19 19 20 21 22 22 24 24 26 28 30 30 31 31 31 31 32 34 36
43 44 44 45 44 44 44 44 44 43 41 38 36 34 32 30 29 28 26 25 23 21 20 19 19 20 21 21 22 23 24 25 27 29 30 30 31 31 31 32 34 35
43 44 44 45 44 44 43 43 44 43 40 38 36 34 32 30 28 27 25 23 22 21 20 18 18 20 20 20 22 23 24 25 26 28 29 30 30 30 31 32 33 34
44 44 45 45 44 44 44 44 44 43 40 38 36 33 31 29 27 25 23 22 21 20 19 18 18 19 19 20 22 22 23 24 26 27 28 29 29 30 31 32 32 34
43 44 44 44 43 43 44 44 44 42 40 38 35 33 30 28 26 24 22 21 20 20 19 18 17 18 19 20 21 21 22 23 25 26 27 28 29 30 31 32 33 34
43 44 43 43 43 43 44 45 45 43 40 37 34 31 28 26 24 22 21 21 20 19 19 18 17 17 18 19 20 20 20 22 23 25 26 27 29 30 31 33 35 35
42 42 42 41 42 42 44 45 44 42 39 36 33 30 28 26 23 21 21 20 20 19 18 18 17 16 18 19 18 18 18 20 22 24 26 27 29 31 33 34 36 37
41 41 40 40 40 42 43 44 42 40 37 35 32 30 27 24 22 21 21 20 19 18 18 18 16 16 18 18 17 16 16 18 21 23 25 27 29 31 34 36 38 39
Wind_Direction
248 246 244 242 241 241 241 241 240 239 239 240 240 241 242 244 246 248 252 255 257 259 262 265 270 275 279 282 285 288 292 297 301 305 308 311 313 313 312 313 312 311
248 246 243 242 240 239 239 240 240 239 239 239 239 240 242 243 246 249 252 254 256 259 262 266 271 275 278 280 283 287 293 297 301 305 308 311 313 312 312 313 311 310
248 246 244 242 241 239 239 238 238 238 237 237 238 239 240 242 245 248 251 253 256 259 262 266 270 273 276 279 283 288 293 298 301 305 308 310 311 311 312 312 310 309
248 247 245 243 241 240 239 238 237 237 236 236 236 237 239 241 243 246 249 252 255 258 261 265 269 272 276 279 284 289 294 297 301 306 307 309 311 311 311 310 309 309
248 247 245 243 241 240 238 238 237 236 236 235 235 236 237 240 242 245 248 251 254 257 261 265 269 272 275 280 285 290 294 298 301 305 306 308 310 309 309 308 307 308
247 245 245 243 241 239 238 238 237 236 235 235 235 235 236 239 242 244 247 251 254 258 262 265 268 272 276 281 286 291 294 297 300 303 304 306 307 306 306 307 306 306
246 245 244 242 241 239 238 237 236 235 234 234 234 234 236 238 241 244 247 251 255 258 262 266 268 272 278 283 287 291 294 297 300 302 303 304 304 304 305 306 306 306
245 244 243 242 240 238 237 236 235 234 233 233 233 233 235 238 240 244 247 251 255 259 262 266 270 274 280 285 289 292 294 297 299 301 303 303 303 304 305 306 306 306
243 242 242 241 239 238 237 235 234 233 232 231 232 233 235 237 240 244 247 251 255 259 263 267 272 277 282 286 289 292 295 297 299 301 302 303 303 304 306 307 307 308
242 242 241 240 239 238 236 234 232 231 230 230 231 233 234 237 241 244 247 251 255 259 263 268 273 278 283 286 289 293 295 297 299 300 301 302 303 305 307 308 308 308
241 240 240 239 239 237 235 234 232 230 229 230 230 232 234 237 241 244 248 251 255 259 263 268 274 279 282 286 290 294 295 297 299 300 301 302 303 305 307 308 308 307
240 239 239 239 238 237 235 233 231 229 229 229 230 231 234 237 240 243 247 251 254 259 264 269 275 279 282 286 291 293 294 296 298 300 302 303 304 306 307 307 307 306
241 240 240 239 238 237 235 232 230 228 228 228 229 231 233 236 239 242 246 250 254 259 265 271 275 278 283 288 291 292 293 296 299 300 302 303 304 306 306 306 307 309
242 241 240 239 238 236 234 232 229 227 227 227 228 229 232 235 239 242 246 250 255 260 265 271 275 278 284 288 290 292 295 298 299 300 301 303 304 306 307 308 311 314
241 239 238 237 235 234 233 230 228 226 226 226 226 228 231 235 238 242 246 250 255 260 265 269 274 279 284 287 290 293 296 297 298 299 302 304 306 307 309 312 315 316
239 238 236 235 234 233 232 229 227 225 224 225 226 228 231 234 238 241 246 251 254 259 264 268 274 280 283 288 291 294 296 296 298 301 303 304 306 308 311 313 314 312
238 236 235 234 233 232 230 227 225 224 224 225 225 228 230 233 237 242 245 251 255 259 264 268 274 280 283 288 291 293 296 297 299 301 302 303 306 308 310 312 310 308
237 235 233 232 231 230 228 226 224 223 223 224 225 227 230 233 237 242 246 251 255 258 263 268 274 280 283 287 290 292 295 296 297 299 300 303 306 307 308 311 313 313
235 233 232 231 230 229 228 225 223 222 222 223 224 226 230 233 237 241 246 251 255 259 263 268 274 278 281 286 289 292 294 295 295 297 299 303 306 309 311 314 316 316
234 233 232 231 230 228 227 224 222 221 221 222 223 226 229 233 237 241 246 250 255 260 263 269 274 276 281 286 288 291 293 293 293 296 300 304 306 311 317 318 318 316
234 233 231 231 230 228 226 223 221 220 220 220 222 226 229 233 237 241 245 250 255 260 264 269 273 277 282 287 288 291 292 291 293 296 300 305 309 314 318 319 319 318
234 232 231 230 229 226 224 221 219 218 218 219 222 225 228 232 236 240 245 250 255 260 265 268 273 278 284 287 289 291 289 290 294 299 303 308 312 316 318 320 321 321
233 232 231 229 228 225 221 219 217 216 217 219 222 225 228 232 236 240 245 251 255 260 265 269 274 280 285 287 288 288 289 293 298 302 307 310 314 318 320 321 322 321
235 233 232 230 228 224 220 216 215 215 217 219 222 225 228 231 235 240 246 251 256 261 267 272 277 281 285 286 286 287 291 297 302 306 310 314 317 320 321 322 323 323
235 234 232 230 227 223 218 215 214 215 216 218 221 224 227 230 234 240 246 250 256 263 269 274 278 283 284 283 284 289 295 301 306 310 314 318 322 323 322 323 323 324
235 233 231 228 224 219 215 214 214 215 216 217 220 221 224 229 235 240 244 250 257 263 269 275 280 282 283 282 286 295 302 306 310 314 319 323 325 322 321 322 324 326